When you browse on this site, cookies collect data to enhance your experience and personalize the content and advertising you see.
Visit our Privacy Policy to learn more. By continuing to use the site, you agree to this use of cookies and data.
  • In Hungary
  • List of Countries
  • For 7 days
  • Water Temperature
  • Weather Map
  • News
  • Weather Widgets
  • user-avatar
    Login

    Hourly Weather Tira

    Today, 22 August, Thursday

    Time Temperature Precipitation Wind Pressure Humidity
    00:00 +12°C° 0 mm 1 mps 731 mmHg 84%
    01:00 +11°C° 0 mm 1 mps 731 mmHg 84%
    02:00 +10°C° 0 mm 0 mps 731 mmHg 86%
    03:00 +9°C° 0 mm 0 mps 731 mmHg 88%
    04:00 +9°C° 0 mm 0 mps 731 mmHg 89%
    05:00 +11°C° 0 mm 0 mps 731 mmHg 84%
    06:00 +12°C° 0 mm 0 mps 731 mmHg 78%
    07:00 +14°C° 0 mm 0 mps 731 mmHg 73%
    08:00 +16°C° 0 mm 0 mps 731 mmHg 66%
    09:00 +18°C° 0 mm 0 mps 731 mmHg 59%
    10:00 +20°C° 0 mm 0 mps 731 mmHg 52%
    11:00 +22°C° 0 mm 1 mps 731 mmHg 51%
    12:00 +22°C° 0 mm 1 mps 731 mmHg 50%
    13:00 +23°C° 0 mm 2 mps 731 mmHg 43%
    14:00 +21°C° 0 mm 2 mps 731 mmHg 46%
    15:00 +21°C° 0 mm 2 mps 731 mmHg 49%
    16:00 +20°C° 0 mm 2 mps 731 mmHg 51%
    17:00 +20°C° 0 mm 1 mps 731 mmHg 58%
    18:00 +18°C° 0 mm 1 mps 731 mmHg 64%
    19:00 +15°C° 0 mm 0 mps 731 mmHg 70%
    20:00 +14°C° 0 mm 0 mps 731 mmHg 72%
    21:00 +14°C° 0 mm 0 mps 731 mmHg 74%
    22:00 +14°C° 0 mm 0 mps 731 mmHg 76%
    23:00 +13°C° 0 mm 0 mps 731 mmHg 80%

    Tomorrow, 23 August, Friday

    Time Temperature Precipitation Wind Pressure Humidity
    00:00 +12°C° 0 mm 0 mps 731 mmHg 84%
    01:00 +11°C° 0 mm 0 mps 730 mmHg 88%
    02:00 +11°C° 0 mm 0 mps 730 mmHg 89%
    03:00 +10°C° 0 mm 0 mps 730 mmHg 91%
    04:00 +10°C° 0 mm 0 mps 730 mmHg 93%
    05:00 +11°C° 0 mm 0 mps 730 mmHg 87%
    06:00 +13°C° 0 mm 0 mps 730 mmHg 81%
    07:00 +14°C° 0 mm 0 mps 730 mmHg 75%
    08:00 +19°C° 0 mm 1 mps 730 mmHg 66%
    09:00 +21°C° 0 mm 1 mps 729 mmHg 58%
    10:00 +23°C° 0 mm 1 mps 729 mmHg 50%
    11:00 +24°C° 0 mm 1 mps 729 mmHg 46%
    12:00 +26°C° 0 mm 1 mps 729 mmHg 41%
    13:00 +28°C° 0 mm 1 mps 728 mmHg 37%
    14:00 +27°C° 0 mm 1 mps 728 mmHg 36%
    15:00 +27°C° 0 mm 1 mps 728 mmHg 35%
    16:00 +27°C° 0 mm 1 mps 727 mmHg 34%
    17:00 +25°C° 0 mm 1 mps 727 mmHg 42%
    18:00 +23°C° 0 mm 1 mps 727 mmHg 51%
    19:00 +19°C° 0 mm 2 mps 727 mmHg 59%
    20:00 +19°C° 0 mm 1 mps 726 mmHg 63%
    21:00 +18°C° 0 mm 1 mps 726 mmHg 67%
    22:00 +15°C° 0 mm 1 mps 726 mmHg 70%
    23:00 +15°C° 0 mm 1 mps 726 mmHg 72%

    Day after tomorrow, 24 August, Saturday

    Time Temperature Precipitation Wind Pressure Humidity
    00:00 +14°C° 0 mm 1 mps 726 mmHg 75%
    01:00 +13°C° 0 mm 1 mps 726 mmHg 77%
    02:00 +13°C° 0 mm 1 mps 726 mmHg 77%
    03:00 +13°C° 0 mm 1 mps 725 mmHg 77%
    04:00 +13°C° 0 mm 1 mps 725 mmHg 77%
    05:00 +14°C° 0 mm 1 mps 725 mmHg 71%
    06:00 +16°C° 0 mm 1 mps 725 mmHg 64%
    07:00 +19°C° 0 mm 1 mps 725 mmHg 57%
    08:00 +22°C° 0 mm 1 mps 725 mmHg 50%
    09:00 +24°C° 0 mm 2 mps 725 mmHg 42%
    10:00 +27°C° 0 mm 2 mps 724 mmHg 35%
    11:00 +28°C° 0 mm 2 mps 724 mmHg 33%
    12:00 +30°C° 0 mm 2 mps 724 mmHg 31%
    13:00 +31°C° 0 mm 2 mps 724 mmHg 29%
    14:00 +31°C° 0 mm 2 mps 724 mmHg 31%
    15:00 +30°C° 0 mm 2 mps 724 mmHg 33%
    16:00 +30°C° 0 mm 2 mps 724 mmHg 35%
    17:00 +27°C° 0.1 mm 3 mps 724 mmHg 47%
    18:00 +25°C° 0.1 mm 3 mps 724 mmHg 59%
    19:00 +21°C° 0.1 mm 3 mps 724 mmHg 71%
    20:00 +20°C° 1 mm 3 mps 724 mmHg 79%
    21:00 +19°C° 1 mm 2 mps 725 mmHg 87%
    22:00 +17°C° 1 mm 2 mps 725 mmHg 95%
    23:00 +17°C° 0.4 mm 2 mps 725 mmHg 96%

    25 August, Sunday

    Time Temperature Precipitation Wind Pressure Humidity
    00:00 +17°C° 0.4 mm 2 mps 725 mmHg 96%
    01:00 +17°C° 0.4 mm 2 mps 726 mmHg 97%
    02:00 +16°C° 0.2 mm 1 mps 725 mmHg 97%
    03:00 +16°C° 0.2 mm 1 mps 725 mmHg 97%
    04:00 +16°C° 0.2 mm 1 mps 725 mmHg 97%
    05:00 +16°C° 0.1 mm 1 mps 726 mmHg 97%
    06:00 +16°C° 0.1 mm 1 mps 726 mmHg 96%
    07:00 +16°C° 0.1 mm 1 mps 726 mmHg 95%
    08:00 +16°C° 0.3 mm 1 mps 726 mmHg 95%
    09:00 +16°C° 0.3 mm 2 mps 726 mmHg 95%
    10:00 +16°C° 0.3 mm 2 mps 726 mmHg 94%
    11:00 +16°C° 0.2 mm 2 mps 727 mmHg 94%
    12:00 +16°C° 0.2 mm 2 mps 727 mmHg 93%
    13:00 +16°C° 0.2 mm 2 mps 727 mmHg 93%
    14:00 +16°C° 0.3 mm 2 mps 727 mmHg 94%
    15:00 +16°C° 0.3 mm 2 mps 727 mmHg 94%
    16:00 +15°C° 0.3 mm 2 mps 728 mmHg 95%
    17:00 +15°C° 0.2 mm 2 mps 728 mmHg 96%
    18:00 +15°C° 0.2 mm 1 mps 728 mmHg 96%
    19:00 +15°C° 0.2 mm 1 mps 729 mmHg 97%
    20:00 +15°C° 0.1 mm 1 mps 729 mmHg 97%
    21:00 +15°C° 0.1 mm 1 mps 729 mmHg 97%
    22:00 +15°C° 0.1 mm 1 mps 729 mmHg 97%
    23:00 +15°C° 0 mm 1 mps 729 mmHg 97%

    26 August, Monday

    Time Temperature Precipitation Wind Pressure Humidity
    00:00 +14°C° 0 mm 1 mps 729 mmHg 97%
    01:00 +14°C° 0 mm 1 mps 729 mmHg 97%
    02:00 +14°C° 0 mm 1 mps 729 mmHg 98%
    03:00 +14°C° 0 mm 1 mps 729 mmHg 98%
    04:00 +14°C° 0 mm 1 mps 729 mmHg 98%
    05:00 +14°C° 0 mm 1 mps 729 mmHg 97%
    06:00 +15°C° 0 mm 1 mps 729 mmHg 96%
    07:00 +15°C° 0 mm 1 mps 730 mmHg 95%
    08:00 +15°C° 0 mm 2 mps 730 mmHg 93%
    09:00 +16°C° 0 mm 2 mps 730 mmHg 90%
    10:00 +16°C° 0 mm 2 mps 730 mmHg 88%
    11:00 +17°C° 0 mm 2 mps 730 mmHg 83%
    12:00 +17°C° 0 mm 2 mps 730 mmHg 78%
    13:00 +18°C° 0 mm 2 mps 730 mmHg 74%
    14:00 +18°C° 0 mm 2 mps 730 mmHg 73%
    15:00 +18°C° 0 mm 2 mps 730 mmHg 72%
    16:00 +18°C° 0 mm 2 mps 730 mmHg 71%
    17:00 +18°C° 0 mm 1 mps 731 mmHg 76%
    18:00 +16°C° 0 mm 1 mps 731 mmHg 80%
    19:00 +15°C° 0 mm 1 mps 731 mmHg 85%
    20:00 +14°C° 0 mm 1 mps 731 mmHg 88%
    21:00 +13°C° 0 mm 0 mps 731 mmHg 90%
    22:00 +12°C° 0 mm 0 mps 731 mmHg 93%
    23:00 +12°C° 0 mm 0 mps 731 mmHg 94%

    27 August, Tuesday

    Time Temperature Precipitation Wind Pressure Humidity
    00:00 +11°C° 0 mm 0 mps 732 mmHg 94%
    01:00 +11°C° 0 mm 0 mps 732 mmHg 95%
    02:00 +12°C° 0 mm 1 mps 732 mmHg 95%
    03:00 +11°C° 0 mm 1 mps 732 mmHg 95%
    04:00 +11°C° 0 mm 1 mps 732 mmHg 96%
    05:00 +12°C° 0 mm 1 mps 732 mmHg 92%
    06:00 +13°C° 0 mm 1 mps 733 mmHg 88%
    07:00 +15°C° 0 mm 1 mps 733 mmHg 85%
    08:00 +16°C° 0 mm 1 mps 733 mmHg 76%
    09:00 +18°C° 0 mm 2 mps 733 mmHg 68%
    10:00 +20°C° 0 mm 2 mps 733 mmHg 59%
    11:00 +21°C° 0 mm 2 mps 733 mmHg 54%
    12:00 +21°C° 0 mm 2 mps 733 mmHg 48%
    13:00 +22°C° 0 mm 3 mps 733 mmHg 42%
    14:00 +22°C° 0 mm 3 mps 733 mmHg 42%
    15:00 +22°C° 0 mm 3 mps 733 mmHg 41%
    16:00 +22°C° 0 mm 3 mps 733 mmHg 41%
    17:00 +19°C° 0 mm 2 mps 733 mmHg 47%
    18:00 +17°C° 0 mm 2 mps 733 mmHg 54%
    19:00 +15°C° 0 mm 1 mps 733 mmHg 60%
    20:00 +14°C° 0 mm 1 mps 734 mmHg 63%
    21:00 +13°C° 0 mm 1 mps 734 mmHg 65%
    22:00 +11°C° 0 mm 1 mps 734 mmHg 68%
    23:00 +11°C° 0 mm 1 mps 734 mmHg 71%
    Show more